When you browse on this site, cookies collect data to enhance your experience and personalize the content and advertising you see.
Visit our Privacy Policy to learn more. By continuing to use the site, you agree to this use of cookies and data.
  • In Austria
  • List of Countries
  • For 7 days
  • Water Temperature
  • Satellite Maps
  • Weather Map
  • News
  • Weather Widgets
  • user-avatar
    Login

    Hourly Weather Kavunivka

    Today, 19 November, Monday

    Time Temperature Precipitation Wind Pressure Humidity
    00:00 -2°C° 0 mm 1 mps 750 mmHg 68%
    01:00 -2°C° 0 mm 1 mps 750 mmHg 69%
    02:00 -2°C° 0 mm 1 mps 750 mmHg 71%
    03:00 -2°C° 0 mm 1 mps 750 mmHg 71%
    04:00 -4°C° 0 mm 2 mps 750 mmHg 72%
    05:00 -4°C° 0 mm 2 mps 750 mmHg 72%
    06:00 -4°C° 0 mm 2 mps 750 mmHg 71%
    07:00 -4°C° 0 mm 3 mps 750 mmHg 71%
    08:00 -4°C° 0 mm 3 mps 750 mmHg 70%
    09:00 -2°C° 0 mm 3 mps 750 mmHg 66%
    10:00 -1°C° 0 mm 3 mps 750 mmHg 62%
    11:00 -1°C° 0 mm 4 mps 750 mmHg 58%
    12:00 -1°C° 0 mm 4 mps 750 mmHg 57%
    13:00 -1°C° 0 mm 4 mps 749 mmHg 55%
    14:00 -1°C° 0 mm 5 mps 749 mmHg 54%
    15:00 -1°C° 0 mm 5 mps 749 mmHg 55%
    16:00 -1°C° 0 mm 5 mps 749 mmHg 57%
    17:00 -3°C° 0 mm 6 mps 748 mmHg 58%
    18:00 -2°C° 0.2 mm 5 mps 748 mmHg 62%
    19:00 -2°C° 0.2 mm 5 mps 748 mmHg 67%
    20:00 -3°C° 0.2 mm 4 mps 748 mmHg 71%
    21:00 -4°C° 0.6 mm 5 mps 748 mmHg 77%
    22:00 -4°C° 0.6 mm 6 mps 748 mmHg 83%
    23:00 -4°C° 0.6 mm 6 mps 748 mmHg 88%

    Tomorrow, 20 November, Tuesday

    Time Temperature Precipitation Wind Pressure Humidity
    00:00 -4°C° 0.6 mm 7 mps 748 mmHg 89%
    01:00 -4°C° 0.6 mm 7 mps 748 mmHg 90%
    02:00 -6°C° 0.6 mm 7 mps 748 mmHg 91%
    03:00 -6°C° 0.4 mm 7 mps 748 mmHg 91%
    04:00 -6°C° 0.4 mm 7 mps 748 mmHg 90%
    05:00 -6°C° 0.4 mm 7 mps 748 mmHg 90%
    06:00 -5°C° 0.1 mm 6 mps 748 mmHg 89%
    07:00 -5°C° 0.1 mm 6 mps 749 mmHg 88%
    08:00 -5°C° 0.1 mm 6 mps 749 mmHg 87%
    09:00 -4°C° 0 mm 6 mps 749 mmHg 85%
    10:00 -4°C° 0 mm 5 mps 749 mmHg 82%
    11:00 -2°C° 0 mm 5 mps 750 mmHg 80%
    12:00 -2°C° 0 mm 5 mps 750 mmHg 79%
    13:00 -2°C° 0 mm 4 mps 750 mmHg 79%
    14:00 -2°C° 0 mm 4 mps 750 mmHg 78%
    15:00 -2°C° 0 mm 4 mps 750 mmHg 81%
    16:00 -2°C° 0 mm 3 mps 750 mmHg 83%
    17:00 -4°C° 0 mm 3 mps 750 mmHg 86%
    18:00 -4°C° 0 mm 3 mps 750 mmHg 87%
    19:00 -5°C° 0 mm 3 mps 751 mmHg 89%
    20:00 -5°C° 0 mm 3 mps 751 mmHg 90%
    21:00 -5°C° 0 mm 3 mps 751 mmHg 91%
    22:00 -5°C° 0 mm 3 mps 751 mmHg 92%
    23:00 -6°C° 0 mm 3 mps 751 mmHg 93%

    Day after tomorrow, 21 November, Wednesday

    Time Temperature Precipitation Wind Pressure Humidity
    00:00 -6°C° 0 mm 3 mps 751 mmHg 93%
    01:00 -6°C° 0 mm 3 mps 751 mmHg 93%
    02:00 -5°C° 0 mm 2 mps 751 mmHg 94%
    03:00 -6°C° 0 mm 3 mps 751 mmHg 94%
    04:00 -6°C° 0 mm 3 mps 751 mmHg 94%
    05:00 -7°C° 0 mm 3 mps 751 mmHg 94%
    06:00 -6°C° 0 mm 3 mps 751 mmHg 94%
    07:00 -6°C° 0 mm 3 mps 751 mmHg 94%
    08:00 -6°C° 0 mm 3 mps 751 mmHg 94%
    09:00 -5°C° 0 mm 3 mps 751 mmHg 92%
    10:00 -4°C° 0 mm 3 mps 751 mmHg 89%
    11:00 -3°C° 0 mm 4 mps 751 mmHg 86%
    12:00 -2°C° 0 mm 4 mps 751 mmHg 86%
    13:00 -2°C° 0 mm 4 mps 751 mmHg 85%
    14:00 -1°C° 0 mm 3 mps 751 mmHg 84%
    15:00 -2°C° 0 mm 3 mps 751 mmHg 85%
    16:00 -4°C° 0 mm 3 mps 751 mmHg 87%
    17:00 -5°C° 0 mm 3 mps 751 mmHg 88%
    18:00 -5°C° 0 mm 3 mps 751 mmHg 89%
    19:00 -5°C° 0 mm 3 mps 751 mmHg 90%
    20:00 -6°C° 0 mm 3 mps 751 mmHg 91%
    21:00 -6°C° 0 mm 3 mps 751 mmHg 92%
    22:00 -5°C° 0 mm 2 mps 751 mmHg 93%
    23:00 -5°C° 0 mm 2 mps 752 mmHg 94%

    22 November, Thursday

    Time Temperature Precipitation Wind Pressure Humidity
    00:00 -5°C° 0 mm 2 mps 752 mmHg 94%
    01:00 -5°C° 0 mm 2 mps 752 mmHg 94%
    02:00 -6°C° 0 mm 2 mps 752 mmHg 95%
    03:00 -6°C° 0 mm 2 mps 752 mmHg 95%
    04:00 -7°C° 0 mm 3 mps 752 mmHg 95%
    05:00 -7°C° 0 mm 3 mps 752 mmHg 95%
    06:00 -7°C° 0 mm 3 mps 752 mmHg 95%
    07:00 -7°C° 0 mm 3 mps 752 mmHg 95%
    08:00 -7°C° 0 mm 3 mps 752 mmHg 95%
    09:00 -6°C° 0 mm 3 mps 752 mmHg 93%
    10:00 -5°C° 0 mm 3 mps 752 mmHg 90%
    11:00 -4°C° 0 mm 3 mps 752 mmHg 88%
    12:00 -4°C° 0 mm 3 mps 752 mmHg 86%
    13:00 -4°C° 0 mm 3 mps 752 mmHg 84%
    14:00 -2°C° 0 mm 3 mps 752 mmHg 82%
    15:00 -4°C° 0 mm 3 mps 752 mmHg 83%
    16:00 -5°C° 0 mm 3 mps 752 mmHg 85%
    17:00 -5°C° 0 mm 3 mps 752 mmHg 86%
    18:00 -6°C° 0 mm 3 mps 752 mmHg 87%
    19:00 -6°C° 0 mm 3 mps 752 mmHg 89%
    20:00 -7°C° 0 mm 3 mps 752 mmHg 90%
    21:00 -7°C° 0 mm 3 mps 753 mmHg 90%
    22:00 -7°C° 0 mm 3 mps 753 mmHg 90%
    23:00 -7°C° 0 mm 3 mps 753 mmHg 90%

    23 November, Friday

    Time Temperature Precipitation Wind Pressure Humidity
    00:00 -7°C° 0 mm 3 mps 753 mmHg 90%
    01:00 -7°C° 0 mm 3 mps 753 mmHg 90%
    02:00 -7°C° 0 mm 3 mps 753 mmHg 90%
    03:00 -7°C° 0 mm 3 mps 753 mmHg 90%
    04:00 -7°C° 0 mm 3 mps 753 mmHg 91%
    05:00 -7°C° 0 mm 3 mps 753 mmHg 92%
    06:00 -7°C° 0 mm 3 mps 754 mmHg 92%
    07:00 -7°C° 0 mm 3 mps 754 mmHg 93%
    08:00 -7°C° 0 mm 3 mps 755 mmHg 94%
    09:00 -6°C° 0 mm 3 mps 755 mmHg 92%
    10:00 -6°C° 0 mm 3 mps 756 mmHg 90%
    11:00 -5°C° 0 mm 4 mps 756 mmHg 87%
    12:00 -4°C° 0 mm 3 mps 756 mmHg 86%
    13:00 -4°C° 0 mm 3 mps 756 mmHg 85%
    14:00 -4°C° 0 mm 3 mps 756 mmHg 84%
    15:00 -3°C° 0 mm 2 mps 757 mmHg 86%
    16:00 -3°C° 0 mm 2 mps 757 mmHg 87%
    17:00 -3°C° 0 mm 2 mps 757 mmHg 88%
    18:00 -2°C° 0 mm 1 mps 757 mmHg 88%
    19:00 -2°C° 0 mm 1 mps 758 mmHg 89%
    20:00 -2°C° 0 mm 1 mps 758 mmHg 89%
    21:00 -3°C° 0 mm 1 mps 758 mmHg 90%
    22:00 -3°C° 0 mm 1 mps 758 mmHg 90%
    23:00 -4°C° 0 mm 0 mps 758 mmHg 91%

    24 November, Saturday

    Time Temperature Precipitation Wind Pressure Humidity
    00:00 -5°C° 0 mm 0 mps 758 mmHg 91%
    01:00 -5°C° 0 mm 0 mps 758 mmHg 91%
    02:00 -5°C° 0 mm 0 mps 758 mmHg 92%
    03:00 -5°C° 0 mm 0 mps 758 mmHg 92%
    04:00 -4°C° 0 mm 1 mps 758 mmHg 92%
    05:00 -4°C° 0 mm 1 mps 757 mmHg 92%
    06:00 -4°C° 0 mm 1 mps 757 mmHg 92%
    07:00 -4°C° 0 mm 1 mps 757 mmHg 92%
    08:00 -4°C° 0 mm 1 mps 757 mmHg 92%
    09:00 -5°C° 0 mm 2 mps 757 mmHg 89%
    10:00 -4°C° 0 mm 2 mps 757 mmHg 86%
    11:00 -3°C° 0 mm 2 mps 757 mmHg 83%
    12:00 -3°C° 0 mm 2 mps 756 mmHg 83%
    13:00 -3°C° 0 mm 2 mps 756 mmHg 83%
    14:00 -2°C° 0 mm 2 mps 755 mmHg 84%
    15:00 -3°C° 0 mm 2 mps 755 mmHg 86%
    16:00 -4°C° 0 mm 2 mps 755 mmHg 89%
    17:00 -5°C° 0 mm 2 mps 755 mmHg 92%
    18:00 -5°C° 0 mm 2 mps 754 mmHg 92%
    19:00 -7°C° 0 mm 3 mps 754 mmHg 92%
    20:00 -7°C° 0 mm 3 mps 754 mmHg 92%
    21:00 -7°C° 0 mm 3 mps 753 mmHg 92%
    22:00 -7°C° 0 mm 3 mps 753 mmHg 92%
    23:00 -7°C° 0 mm 3 mps 753 mmHg 92%
    Show more